QPF
0.00 0.00 0.00 0.00 0.00 0.00 0.00 0.00 0.00 0.00 0.00 0.00 0.00 0.00 0.00 0.00 0.00 0.00 0.00 0.00 0.00 0.00 0.01 0.01 0.02 0.01 0.01 0.01 0.02 0.03 0.03 0.02 0.02 0.03 0.03 0.03 0.02 0.02 0.03 0.02 0.03 0.03 0.03 0.03 0.04 0.04 0.02 0.01 0.00
0.00 0.00 0.00 0.00 0.00 0.00 0.00 0.00 0.00 0.00 0.00 0.00 0.00 0.00 0.00 0.00 0.00 0.00 0.01 0.01 0.01 0.01 0.01 0.01 0.01 0.01 0.01 0.01 0.01 0.02 0.02 0.02 0.03 0.04 0.03 0.03 0.03 0.03 0.02 0.02 0.02 0.03 0.03 0.03 0.04 0.04 0.04 0.03 0.01
0.00 0.00 0.00 0.00 0.00 0.00 0.00 0.00 0.00 0.00 0.00 0.00 0.00 0.00 0.00 0.01 0.00 0.00 0.01 0.01 0.01 0.01 0.01 0.01 0.01 0.01 0.01 0.01 0.01 0.01 0.02 0.02 0.03 0.04 0.04 0.04 0.04 0.03 0.02 0.02 0.02 0.03 0.02 0.02 0.03 0.03 0.03 0.05 0.04
0.00 0.00 0.00 0.00 0.00 0.00 0.00 0.00 0.00 0.00 0.00 0.00 0.00 0.00 0.01 0.01 0.01 0.01 0.01 0.01 0.01 0.01 0.01 0.01 0.01 0.01 0.01 0.00 0.01 0.01 0.02 0.02 0.03 0.02 0.03 0.03 0.03 0.03 0.03 0.02 0.02 0.02 0.02 0.01 0.02 0.02 0.03 0.03 0.04
0.00 0.00 0.00 0.00 0.00 0.00 0.00 0.00 0.00 0.00 0.00 0.00 0.00 0.00 0.01 0.02 0.02 0.02 0.01 0.01 0.01 0.01 0.02 0.02 0.01 0.01 0.01 0.01 0.01 0.01 0.02 0.03 0.03 0.02 0.02 0.03 0.03 0.03 0.03 0.03 0.02 0.02 0.01 0.01 0.01 0.02 0.02 0.02 0.03
0.01 0.00 0.00 0.00 0.00 0.00 0.00 0.00 0.00 0.00 0.00 0.00 0.01 0.01 0.02 0.02 0.02 0.03 0.02 0.02 0.01 0.01 0.02 0.03 0.02 0.02 0.02 0.01 0.01 0.01 0.02 0.02 0.03 0.03 0.02 0.02 0.02 0.02 0.02 0.02 0.02 0.01 0.01 0.01 0.01 0.01 0.01 0.01 0.01
0.01 0.01 0.00 0.00 0.00 0.00 0.00 0.00 0.00 0.00 0.00 0.00 0.01 0.01 0.02 0.02 0.03 0.03 0.03 0.02 0.01 0.01 0.02 0.03 0.03 0.03 0.03 0.02 0.01 0.01 0.01 0.02 0.02 0.03 0.03 0.03 0.02 0.02 0.02 0.01 0.01 0.01 0.01 0.01 0.01 0.01 0.01 0.01 0.01
0.01 0.01 0.01 0.00 0.00 0.00 0.00 0.00 0.00 0.00 0.00 0.00 0.01 0.01 0.02 0.02 0.03 0.03 0.03 0.02 0.01 0.01 0.02 0.02 0.03 0.03 0.04 0.03 0.02 0.01 0.01 0.01 0.02 0.02 0.02 0.03 0.03 0.02 0.01 0.01 0.01 0.01 0.01 0.01 0.01 0.01 0.01 0.01 0.01
0.00 0.01 0.01 0.00 0.00 0.00 0.00 0.00 0.00 0.00 0.01 0.01 0.01 0.01 0.02 0.03 0.03 0.03 0.02 0.02 0.02 0.02 0.02 0.01 0.01 0.02 0.02 0.02 0.02 0.01 0.01 0.01 0.01 0.01 0.02 0.03 0.03 0.03 0.02 0.01 0.01 0.01 0.01 0.01 0.01 0.01 0.01 0.01 0.01
0.01 0.01 0.01 0.01 0.00 0.00 0.00 0.00 0.00 0.01 0.00 0.01 0.01 0.01 0.02 0.03 0.03 0.02 0.01 0.01 0.02 0.02 0.02 0.02 0.02 0.02 0.02 0.02 0.01 0.01 0.02 0.02 0.02 0.01 0.01 0.02 0.03 0.03 0.03 0.02 0.01 0.01 0.01 0.01 0.00 0.00 0.00 0.00 0.00
0.01 0.02 0.01 0.01 0.00 0.00 0.00 0.00 0.00 0.01 0.01 0.01 0.02 0.02 0.03 0.02 0.02 0.02 0.02 0.02 0.02 0.02 0.02 0.02 0.02 0.02 0.02 0.02 0.02 0.02 0.02 0.02 0.02 0.01 0.01 0.01 0.02 0.03 0.04 0.05 0.04 0.02 0.01 0.01 0.01 0.00 0.00 0.00 0.00
0.01 0.01 0.01 0.01 0.00 0.00 0.01 0.01 0.01 0.01 0.02 0.02 0.01 0.02 0.03 0.02 0.02 0.02 0.02 0.02 0.02 0.02 0.02 0.02 0.02 0.02 0.03 0.03 0.03 0.02 0.02 0.02 0.01 0.01 0.01 0.01 0.01 0.03 0.04 0.05 0.06 0.05 0.03 0.01 0.01 0.01 0.00 0.00 0.00
0.01 0.01 0.01 0.01 0.01 0.01 0.01 0.01 0.01 0.02 0.02 0.02 0.02 0.01 0.02 0.02 0.02 0.02 0.02 0.02 0.02 0.01 0.01 0.01 0.01 0.01 0.02 0.02 0.03 0.03 0.03 0.03 0.02 0.02 0.02 0.01 0.01 0.02 0.03 0.03 0.04 0.05 0.04 0.02 0.01 0.01 0.01 0.00 0.00
0.01 0.01 0.01 0.01 0.01 0.01 0.01 0.02 0.02 0.03 0.04 0.02 0.01 0.01 0.01 0.02 0.02 0.03 0.02 0.02 0.01 0.01 0.01 0.01 0.01 0.01 0.02 0.03 0.03 0.03 0.03 0.03 0.03 0.03 0.03 0.02 0.01 0.01 0.02 0.03 0.03 0.03 0.04 0.03 0.02 0.01 0.01 0.01 0.01
0.01 0.01 0.01 0.01 0.01 0.01 0.01 0.01 0.02 0.03 0.04 0.04 0.03 0.02 0.02 0.01 0.02 0.02 0.02 0.01 0.02 0.01 0.01 0.01 0.01 0.02 0.02 0.03 0.03 0.03 0.03 0.02 0.02 0.02 0.02 0.03 0.03 0.02 0.02 0.02 0.03 0.03 0.03 0.03 0.03 0.02 0.01 0.01 0.01
0.02 0.03 0.03 0.02 0.01 0.01 0.01 0.02 0.02 0.02 0.02 0.04 0.04 0.03 0.02 0.02 0.02 0.02 0.02 0.02 0.03 0.02 0.01 0.01 0.01 0.01 0.02 0.02 0.02 0.02 0.02 0.03 0.04 0.04 0.03 0.02 0.03 0.03 0.03 0.03 0.04 0.03 0.03 0.03 0.03 0.03 0.02 0.01 0.01
0.03 0.03 0.03 0.03 0.02 0.01 0.01 0.03 0.02 0.01 0.01 0.03 0.03 0.04 0.04 0.03 0.02 0.02 0.03 0.02 0.03 0.03 0.03 0.02 0.02 0.01 0.01 0.01 0.01 0.02 0.02 0.03 0.04 0.06 0.07 0.06 0.04 0.04 0.04 0.04 0.04 0.05 0.05 0.04 0.04 0.04 0.03 0.02 0.01
0.02 0.02 0.01 0.02 0.02 0.02 0.01 0.02 0.03 0.02 0.02 0.02 0.02 0.02 0.03 0.03 0.03 0.04 0.04 0.04 0.03 0.03 0.03 0.03 0.02 0.02 0.02 0.02 0.02 0.02 0.03 0.03 0.03 0.04 0.06 0.07 0.07 0.06 0.05 0.05 0.04 0.04 0.05 0.06 0.05 0.05 0.05 0.04 0.02
0.01 0.01 0.01 0.01 0.01 0.02 0.02 0.02 0.02 0.03 0.04 0.03 0.02 0.02 0.01 0.01 0.01 0.02 0.02 0.02 0.03 0.04 0.05 0.06 0.06 0.05 0.04 0.04 0.04 0.04 0.04 0.03 0.03 0.04 0.04 0.05 0.06 0.06 0.06 0.05 0.04 0.04 0.05 0.05 0.05 0.05 0.05 0.04 0.03
0.01 0.02 0.01 0.01 0.01 0.02 0.03 0.04 0.03 0.02 0.03 0.04 0.04 0.03 0.03 0.02 0.02 0.01 0.01 0.01 0.02 0.03 0.05 0.05 0.05 0.05 0.05 0.05 0.05 0.05 0.04 0.04 0.03 0.03 0.03 0.04 0.04 0.05 0.05 0.05 0.05 0.05 0.05 0.06 0.05 0.05 0.04 0.04 0.03
0.02 0.02 0.02 0.02 0.02 0.03 0.03 0.04 0.04 0.02 0.02 0.03 0.03 0.04 0.04 0.03 0.03 0.02 0.02 0.02 0.01 0.01 0.02 0.02 0.03 0.03 0.03 0.04 0.04 0.04 0.03 0.03 0.03 0.03 0.03 0.03 0.04 0.04 0.05 0.05 0.06 0.06 0.06 0.06 0.06 0.06 0.06 0.06 0.05
0.02 0.02 0.02 0.03 0.03 0.03 0.03 0.04 0.03 0.02 0.01 0.01 0.02 0.03 0.03 0.03 0.03 0.04 0.04 0.03 0.02 0.01 0.01 0.01 0.02 0.02 0.02 0.02 0.02 0.02 0.02 0.03 0.02 0.02 0.02 0.03 0.03 0.03 0.04 0.05 0.06 0.07 0.08 0.08 0.08 0.08 0.08 0.08 0.07
0.02 0.02 0.02 0.03 0.04 0.04 0.03 0.02 0.02 0.01 0.01 0.01 0.01 0.02 0.02 0.03 0.03 0.04 0.05 0.05 0.04 0.03 0.02 0.01 0.01 0.01 0.02 0.02 0.03 0.03 0.04 0.03 0.03 0.02 0.03 0.03 0.03 0.03 0.03 0.04 0.05 0.06 0.08 0.09 0.09 0.09 0.10 0.10 0.10
0.02 0.03 0.03 0.04 0.06 0.05 0.02 0.01 0.01 0.01 0.01 0.01 0.01 0.03 0.03 0.02 0.02 0.03 0.04 0.06 0.07 0.06 0.06 0.05 0.04 0.02 0.02 0.02 0.03 0.03 0.03 0.04 0.05 0.04 0.04 0.03 0.03 0.03 0.04 0.04 0.05 0.05 0.06 0.07 0.08 0.09 0.10 0.11 0.10
0.02 0.05 0.06 0.07 0.08 0.05 0.01 0.01 0.01 0.01 0.01 0.01 0.01 0.02 0.02 0.01 0.01 0.02 0.02 0.03 0.04 0.05 0.06 0.07 0.07 0.06 0.04 0.03 0.03 0.04 0.04 0.04 0.04 0.05 0.05 0.04 0.04 0.03 0.03 0.03 0.03 0.04 0.04 0.05 0.05 0.07 0.09 0.10 0.10
0.01 0.04 0.06 0.04 0.04 0.02 0.01 0.01 0.01 0.01 0.00 0.00 0.00 0.01 0.01 0.01 0.01 0.01 0.02 0.02 0.02 0.03 0.03 0.04 0.04 0.04 0.03 0.02 0.02 0.02 0.02 0.03 0.04 0.04 0.05 0.05 0.04 0.03 0.04 0.04 0.04 0.04 0.05 0.05 0.05 0.06 0.06 0.07 0.09
0.02 0.02 0.04 0.05 0.03 0.02 0.01 0.01 0.01 0.00 0.00 0.00 0.00 0.00 0.00 0.00 0.00 0.01 0.01 0.01 0.01 0.02 0.02 0.03 0.03 0.04 0.04 0.04 0.03 0.02 0.02 0.02 0.03 0.03 0.04 0.04 0.05 0.05 0.05 0.04 0.04 0.04 0.04 0.03 0.03 0.03 0.03 0.04 0.05
0.02 0.03 0.03 0.05 0.04 0.02 0.01 0.01 0.01 0.01 0.00 0.00 0.00 0.00 0.00 0.00 0.00 0.00 0.00 0.00 0.00 0.01 0.02 0.03 0.03 0.04 0.05 0.05 0.06 0.05 0.04 0.03 0.02 0.02 0.03 0.03 0.03 0.03 0.03 0.03 0.03 0.03 0.03 0.03 0.03 0.02 0.02 0.03 0.03
0.02 0.03 0.04 0.05 0.04 0.02 0.02 0.02 0.02 0.01 0.01 0.00 0.01 0.01 0.00 0.00 0.00 0.00 0.00 0.00 0.00 0.01 0.01 0.02 0.03 0.04 0.05 0.06 0.07 0.07 0.07 0.06 0.05 0.04 0.03 0.03 0.03 0.04 0.04 0.05 0.05 0.04 0.04 0.03 0.02 0.02 0.02 0.02 0.03
0.02 0.01 0.03 0.04 0.04 0.03 0.02 0.02 0.02 0.01 0.01 0.01 0.00 0.00 0.00 0.00 0.00 0.00 0.00 0.00 0.00 0.00 0.00 0.01 0.02 0.03 0.05 0.06 0.08 0.09 0.09 0.09 0.08 0.07 0.07 0.06 0.05 0.06 0.05 0.05 0.05 0.05 0.04 0.04 0.04 0.04 0.05 0.05 0.06
MSLP
1015.99 1015.97 1016.31 1016.93 1017.75 1018.61 1019.36 1019.91 1020.17 1020.16 1019.94 1019.62 1019.31 1019.10 1019.01 1019.04 1019.14 1019.25 1019.29 1019.23 1019.09 1018.89 1018.71 1018.61 1018.63 1018.80 1019.06 1019.37 1019.66 1019.85 1019.92 1019.86 1019.70 1019.48 1019.27 1019.10 1018.99 1018.94 1018.92 1018.91 1018.89 1018.85 1018.80 1018.76 1018.76 1018.82 1018.92 1019.06 1019.19
1016.14 1016.30 1016.83 1017.64 1018.60 1019.54 1020.33 1020.83 1021.02 1020.91 1020.59 1020.20 1019.86 1019.64 1019.59 1019.67 1019.83 1019.98 1020.03 1019.95 1019.75 1019.47 1019.19 1018.98 1018.91 1019.00 1019.21 1019.49 1019.77 1019.98 1020.07 1020.04 1019.91 1019.71 1019.52 1019.35 1019.24 1019.17 1019.13 1019.10 1019.06 1019.00 1018.94 1018.91 1018.91 1018.98 1019.10 1019.24 1019.38
1016.36 1016.71 1017.43 1018.39 1019.47 1020.48 1021.27 1021.74 1021.87 1021.69 1021.32 1020.90 1020.55 1020.36 1020.35 1020.49 1020.69 1020.85 1020.89 1020.76 1020.49 1020.11 1019.72 1019.40 1019.23 1019.22 1019.35 1019.57 1019.81 1019.99 1020.08 1020.06 1019.95 1019.78 1019.61 1019.47 1019.37 1019.31 1019.28 1019.25 1019.21 1019.15 1019.09 1019.06 1019.07 1019.14 1019.26 1019.41 1019.55
1016.71 1017.26 1018.14 1019.24 1020.39 1021.43 1022.22 1022.66 1022.75 1022.54 1022.17 1021.77 1021.46 1021.31 1021.35 1021.51 1021.71 1021.85 1021.85 1021.65 1021.29 1020.82 1020.32 1019.90 1019.61 1019.50 1019.53 1019.67 1019.83 1019.96 1020.01 1019.97 1019.86 1019.71 1019.57 1019.46 1019.40 1019.37 1019.36 1019.35 1019.32 1019.27 1019.23 1019.20 1019.22 1019.29 1019.41 1019.54 1019.66
1017.28 1018.00 1019.03 1020.22 1021.41 1022.45 1023.22 1023.64 1023.72 1023.53 1023.20 1022.86 1022.61 1022.52 1022.58 1022.75 1022.92 1022.99 1022.91 1022.62 1022.17 1021.60 1021.02 1020.50 1020.13 1019.91 1019.85 1019.88 1019.95 1019.99 1019.97 1019.89 1019.75 1019.61 1019.48 1019.40 1019.37 1019.38 1019.40 1019.42 1019.41 1019.38 1019.34 1019.31 1019.33 1019.39 1019.49 1019.61 1019.71
1018.14 1019.02 1020.15 1021.38 1022.57 1023.58 1024.31 1024.71 1024.81 1024.67 1024.42 1024.16 1024.00 1023.96 1024.04 1024.17 1024.27 1024.25 1024.06 1023.67 1023.12 1022.48 1021.83 1021.26 1020.82 1020.53 1020.38 1020.31 1020.27 1020.20 1020.10 1019.94 1019.76 1019.59 1019.45 1019.38 1019.37 1019.40 1019.44 1019.47 1019.48 1019.45 1019.41 1019.38 1019.38 1019.43 1019.50 1019.59 1019.66
1019.32 1020.34 1021.52 1022.75 1023.89 1024.84 1025.51 1025.89 1026.01 1025.95 1025.79 1025.65 1025.57 1025.58 1025.65 1025.72 1025.73 1025.59 1025.27 1024.78 1024.15 1023.46 1022.79 1022.19 1021.73 1021.40 1021.18 1021.02 1020.88 1020.71 1020.50 1020.25 1020.00 1019.78 1019.62 1019.53 1019.51 1019.53 1019.56 1019.58 1019.57 1019.53 1019.47 1019.42 1019.39 1019.39 1019.43 1019.48 1019.51
1020.80 1021.91 1023.11 1024.29 1025.34 1026.19 1026.79 1027.15 1027.30 1027.31 1027.26 1027.21 1027.21 1027.26 1027.31 1027.31 1027.20 1026.94 1026.51 1025.93 1025.26 1024.55 1023.88 1023.31 1022.86 1022.51 1022.25 1022.03 1021.79 1021.53 1021.22 1020.89 1020.57 1020.29 1020.07 1019.94 1019.87 1019.84 1019.83 1019.81 1019.75 1019.67 1019.56 1019.46 1019.38 1019.33 1019.31 1019.30 1019.28
1022.46 1023.63 1024.80 1025.90 1026.84 1027.58 1028.10 1028.42 1028.59 1028.67 1028.71 1028.75 1028.82 1028.87 1028.89 1028.82 1028.61 1028.24 1027.72 1027.09 1026.40 1025.72 1025.09 1024.56 1024.14 1023.81 1023.53 1023.26 1022.96 1022.62 1022.24 1021.84 1021.46 1021.11 1020.84 1020.64 1020.51 1020.41 1020.31 1020.21 1020.07 1019.91 1019.74 1019.57 1019.42 1019.29 1019.19 1019.11 1019.03
1024.17 1025.35 1026.49 1027.49 1028.31 1028.93 1029.36 1029.63 1029.81 1029.94 1030.05 1030.16 1030.26 1030.32 1030.30 1030.16 1029.87 1029.43 1028.86 1028.21 1027.54 1026.91 1026.35 1025.89 1025.52 1025.21 1024.92 1024.62 1024.28 1023.90 1023.47 1023.03 1022.61 1022.23 1021.91 1021.64 1021.43 1021.23 1021.04 1020.82 1020.59 1020.33 1020.07 1019.82 1019.58 1019.37 1019.18 1018.99 1018.81
1025.76 1026.95 1028.03 1028.93 1029.63 1030.15 1030.50 1030.73 1030.91 1031.06 1031.21 1031.35 1031.47 1031.52 1031.46 1031.26 1030.91 1030.44 1029.86 1029.24 1028.63 1028.07 1027.59 1027.20 1026.87 1026.58 1026.29 1025.97 1025.61 1025.20 1024.77 1024.32 1023.90 1023.51 1023.17 1022.86 1022.57 1022.28 1021.98 1021.66 1021.31 1020.96 1020.61 1020.27 1019.94 1019.63 1019.33 1019.03 1018.72
1027.12 1028.31 1029.33 1030.15 1030.76 1031.19 1031.48 1031.69 1031.86 1032.02 1032.18 1032.33 1032.43 1032.44 1032.34 1032.10 1031.73 1031.26 1030.72 1030.16 1029.63 1029.16 1028.76 1028.42 1028.13 1027.84 1027.53 1027.19 1026.82 1026.41 1026.00 1025.59 1025.20 1024.84 1024.51 1024.18 1023.84 1023.48 1023.08 1022.66 1022.23 1021.78 1021.35 1020.93 1020.53 1020.13 1019.71 1019.28 1018.82
1028.21 1029.37 1030.35 1031.12 1031.68 1032.07 1032.32 1032.51 1032.67 1032.83 1032.98 1033.10 1033.16 1033.13 1032.98 1032.71 1032.34 1031.90 1031.42 1030.95 1030.52 1030.14 1029.81 1029.51 1029.22 1028.91 1028.57 1028.21 1027.82 1027.43 1027.05 1026.70 1026.38 1026.09 1025.79 1025.47 1025.12 1024.71 1024.26 1023.76 1023.26 1022.75 1022.27 1021.79 1021.33 1020.84 1020.33 1019.75 1019.14
1029.03 1030.18 1031.13 1031.87 1032.42 1032.79 1033.06 1033.25 1033.42 1033.56 1033.67 1033.75 1033.74 1033.65 1033.45 1033.16 1032.80 1032.41 1032.01 1031.63 1031.30 1031.00 1030.72 1030.43 1030.12 1029.77 1029.39 1028.98 1028.58 1028.21 1027.88 1027.60 1027.37 1027.15 1026.92 1026.64 1026.29 1025.87 1025.38 1024.84 1024.30 1023.77 1023.26 1022.76 1022.27 1021.73 1021.12 1020.43 1019.66
1029.69 1030.81 1031.74 1032.48 1033.04 1033.44 1033.74 1033.96 1034.14 1034.27 1034.35 1034.36 1034.28 1034.12 1033.86 1033.55 1033.20 1032.85 1032.53 1032.24 1031.99 1031.76 1031.51 1031.22 1030.88 1030.47 1030.03 1029.58 1029.16 1028.79 1028.51 1028.30 1028.14 1028.00 1027.83 1027.59 1027.26 1026.84 1026.34 1025.80 1025.25 1024.72 1024.22 1023.73 1023.23 1022.67 1022.01 1021.23 1020.34
1030.31 1031.37 1032.28 1033.02 1033.60 1034.05 1034.39 1034.66 1034.87 1034.99 1035.04 1034.99 1034.85 1034.61 1034.30 1033.95 1033.61 1033.29 1033.03 1032.82 1032.64 1032.45 1032.22 1031.92 1031.54 1031.08 1030.58 1030.08 1029.63 1029.27 1029.01 1028.85 1028.75 1028.66 1028.53 1028.32 1028.01 1027.59 1027.09 1026.55 1026.02 1025.51 1025.03 1024.57 1024.09 1023.54 1022.87 1022.05 1021.08
1030.97 1031.96 1032.82 1033.54 1034.14 1034.63 1035.03 1035.35 1035.58 1035.72 1035.75 1035.66 1035.46 1035.16 1034.80 1034.43 1034.08 1033.79 1033.57 1033.40 1033.26 1033.11 1032.88 1032.57 1032.15 1031.65 1031.11 1030.57 1030.10 1029.73 1029.48 1029.33 1029.25 1029.18 1029.06 1028.85 1028.53 1028.11 1027.61 1027.08 1026.56 1026.08 1025.64 1025.22 1024.78 1024.26 1023.61 1022.79 1021.81
1031.74 1032.60 1033.37 1034.04 1034.62 1035.13 1035.57 1035.94 1036.22 1036.39 1036.42 1036.32 1036.09 1035.76 1035.37 1034.98 1034.62 1034.34 1034.14 1034.00 1033.88 1033.74 1033.52 1033.20 1032.77 1032.24 1031.68 1031.12 1030.63 1030.25 1029.98 1029.82 1029.71 1029.62 1029.47 1029.23 1028.88 1028.44 1027.93 1027.39 1026.88 1026.43 1026.02 1025.64 1025.24 1024.77 1024.16 1023.38 1022.43
1032.59 1033.28 1033.91 1034.48 1035.01 1035.50 1035.95 1036.35 1036.67 1036.87 1036.94 1036.86 1036.65 1036.33 1035.94 1035.55 1035.21 1034.93 1034.74 1034.60 1034.49 1034.34 1034.13 1033.81 1033.38 1032.86 1032.30 1031.75 1031.25 1030.85 1030.56 1030.35 1030.19 1030.03 1029.82 1029.52 1029.12 1028.64 1028.10 1027.56 1027.05 1026.60 1026.21 1025.86 1025.49 1025.06 1024.50 1023.78 1022.90
1033.46 1033.95 1034.39 1034.81 1035.22 1035.64 1036.07 1036.47 1036.82 1037.07 1037.19 1037.18 1037.03 1036.76 1036.43 1036.08 1035.76 1035.50 1035.31 1035.16 1035.04 1034.89 1034.67 1034.37 1033.96 1033.47 1032.94 1032.41 1031.93 1031.52 1031.19 1030.92 1030.69 1030.45 1030.15 1029.77 1029.31 1028.79 1028.22 1027.66 1027.15 1026.69 1026.30 1025.94 1025.58 1025.17 1024.66 1024.00 1023.21
1034.27 1034.52 1034.74 1034.97 1035.22 1035.52 1035.86 1036.23 1036.58 1036.88 1037.08 1037.16 1037.11 1036.96 1036.73 1036.46 1036.19 1035.96 1035.78 1035.63 1035.49 1035.33 1035.11 1034.83 1034.46 1034.02 1033.54 1033.06 1032.60 1032.19 1031.83 1031.50 1031.19 1030.85 1030.47 1030.01 1029.50 1028.93 1028.34 1027.77 1027.24 1026.77 1026.36 1025.98 1025.60 1025.18 1024.68 1024.08 1023.36
1034.96 1034.97 1034.95 1034.95 1035.00 1035.13 1035.35 1035.64 1035.96 1036.28 1036.56 1036.75 1036.84 1036.84 1036.75 1036.60 1036.42 1036.25 1036.09 1035.94 1035.79 1035.62 1035.42 1035.15 1034.83 1034.45 1034.03 1033.60 1033.18 1032.78 1032.39 1032.01 1031.63 1031.21 1030.75 1030.24 1029.68 1029.09 1028.49 1027.92 1027.38 1026.90 1026.45 1026.02 1025.60 1025.14 1024.63 1024.04 1023.38
1035.50 1035.30 1035.05 1034.82 1034.65 1034.58 1034.63 1034.79 1035.04 1035.36 1035.68 1035.98 1036.22 1036.37 1036.45 1036.45 1036.40 1036.31 1036.20 1036.07 1035.92 1035.75 1035.55 1035.31 1035.03 1034.71 1034.36 1033.99 1033.62 1033.23 1032.83 1032.41 1031.96 1031.48 1030.96 1030.41 1029.83 1029.24 1028.66 1028.10 1027.56 1027.06 1026.57 1026.09 1025.60 1025.09 1024.53 1023.93 1023.29
1035.93 1035.56 1035.12 1034.67 1034.28 1033.99 1033.83 1033.83 1033.96 1034.23 1034.56 1034.93 1035.30 1035.61 1035.86 1036.03 1036.12 1036.13 1036.08 1035.99 1035.86 1035.70 1035.51 1035.30 1035.06 1034.80 1034.52 1034.21 1033.87 1033.50 1033.09 1032.64 1032.15 1031.62 1031.07 1030.50 1029.92 1029.35 1028.79 1028.26 1027.73 1027.22 1026.70 1026.16 1025.60 1025.01 1024.40 1023.76 1023.11
1036.30 1035.82 1035.24 1034.63 1034.03 1033.51 1033.14 1032.93 1032.91 1033.06 1033.36 1033.75 1034.20 1034.65 1035.05 1035.37 1035.60 1035.73 1035.76 1035.73 1035.63 1035.49 1035.32 1035.14 1034.95 1034.75 1034.52 1034.26 1033.95 1033.60 1033.19 1032.71 1032.19 1031.63 1031.05 1030.47 1029.90 1029.35 1028.83 1028.32 1027.81 1027.30 1026.75 1026.16 1025.54 1024.88 1024.20 1023.51 1022.84
1036.68 1036.16 1035.51 1034.76 1033.99 1033.28 1032.68 1032.25 1032.03 1032.03 1032.23 1032.60 1033.07 1033.59 1034.10 1034.55 1034.91 1035.15 1035.28 1035.31 1035.26 1035.16 1035.03 1034.89 1034.74 1034.58 1034.40 1034.18 1033.91 1033.57 1033.15 1032.66 1032.10 1031.51 1030.91 1030.32 1029.75 1029.22 1028.72 1028.23 1027.74 1027.22 1026.65 1026.03 1025.35 1024.63 1023.89 1023.17 1022.47
1037.12 1036.62 1035.94 1035.12 1034.23 1033.33 1032.53 1031.88 1031.45 1031.26 1031.32 1031.60 1032.03 1032.57 1033.14 1033.68 1034.13 1034.47 1034.69 1034.79 1034.80 1034.75 1034.67 1034.57 1034.47 1034.35 1034.22 1034.03 1033.78 1033.45 1033.02 1032.51 1031.93 1031.31 1030.67 1030.06 1029.48 1028.95 1028.45 1027.96 1027.47 1026.94 1026.35 1025.70 1024.99 1024.23 1023.46 1022.70 1021.98
1037.60 1037.16 1036.49 1035.65 1034.67 1033.65 1032.67 1031.83 1031.19 1030.80 1030.69 1030.84 1031.19 1031.69 1032.26 1032.83 1033.35 1033.75 1034.04 1034.22 1034.30 1034.31 1034.27 1034.23 1034.17 1034.10 1034.00 1033.85 1033.62 1033.29 1032.86 1032.33 1031.72 1031.06 1030.39 1029.74 1029.12 1028.56 1028.03 1027.52 1027.01 1026.46 1025.85 1025.18 1024.44 1023.67 1022.88 1022.11 1021.39
1038.09 1037.70 1037.07 1036.23 1035.21 1034.11 1033.01 1032.01 1031.20 1030.64 1030.36 1030.36 1030.60 1031.01 1031.54 1032.10 1032.62 1033.07 1033.40 1033.64 1033.77 1033.84 1033.87 1033.88 1033.87 1033.84 1033.78 1033.66 1033.45 1033.13 1032.69 1032.14 1031.51 1030.81 1030.10 1029.40 1028.73 1028.11 1027.53 1026.98 1026.42 1025.83 1025.20 1024.50 1023.76 1022.98 1022.19 1021.42 1020.70
1038.49 1038.14 1037.54 1036.70 1035.68 1034.54 1033.38 1032.29 1031.36 1030.67 1030.25 1030.11 1030.23 1030.54 1030.99 1031.50 1032.00 1032.45 1032.81 1033.08 1033.27 1033.40 1033.48 1033.54 1033.58 1033.59 1033.56 1033.47 1033.27 1032.96 1032.53 1031.97 1031.32 1030.59 1029.84 1029.09 1028.36 1027.68 1027.03 1026.41 1025.79 1025.15 1024.48 1023.76 1023.00 1022.21 1021.43 1020.67 1019.95
Thickness
5697 5703 5708 5710 5704 5696 5688 5689 5694 5695 5698 5701 5702 5703 5701 5698 5695 5689 5692 5698 5697 5696 5693 5690 5688 5688 5687 5687 5686 5686 5686 5686 5686 5685 5685 5685 5684 5684 5683 5683 5683 5683 5683 5683 5682 5682 5681 5681 5681
5694 5700 5703 5701 5693 5684 5682 5688 5689 5692 5695 5698 5699 5699 5697 5694 5693 5691 5692 5693 5694 5692 5690 5688 5686 5685 5685 5684 5684 5684 5684 5683 5683 5683 5682 5682 5681 5681 5681 5680 5680 5680 5680 5679 5679 5679 5678 5678 5677
5691 5696 5693 5688 5681 5681 5679 5684 5687 5690 5693 5694 5693 5694 5692 5688 5688 5689 5690 5690 5690 5688 5687 5685 5683 5682 5681 5681 5681 5681 5681 5680 5680 5680 5679 5679 5678 5678 5677 5677 5677 5676 5676 5676 5676 5675 5675 5674 5674
5687 5688 5685 5678 5671 5675 5678 5681 5684 5686 5688 5690 5691 5687 5685 5680 5682 5686 5686 5686 5686 5684 5683 5681 5679 5679 5678 5678 5678 5677 5677 5677 5677 5677 5676 5676 5675 5674 5674 5673 5673 5673 5673 5672 5672 5671 5671 5670 5670
5682 5678 5670 5665 5666 5670 5673 5675 5680 5682 5682 5683 5686 5682 5677 5675 5679 5681 5681 5682 5681 5680 5679 5677 5676 5675 5675 5674 5674 5674 5674 5673 5673 5673 5672 5672 5671 5671 5670 5670 5669 5669 5669 5668 5668 5667 5667 5666 5666
5669 5669 5660 5658 5661 5665 5668 5670 5674 5675 5676 5675 5677 5677 5670 5669 5672 5673 5675 5675 5675 5675 5673 5672 5671 5671 5670 5670 5670 5670 5670 5670 5669 5669 5668 5668 5667 5667 5667 5666 5666 5665 5665 5665 5664 5663 5663 5662 5662
5659 5657 5654 5655 5655 5657 5660 5664 5666 5668 5668 5667 5671 5670 5665 5664 5664 5666 5668 5669 5669 5669 5668 5668 5667 5666 5666 5666 5666 5666 5666 5666 5665 5665 5664 5664 5663 5663 5663 5662 5662 5661 5661 5661 5660 5660 5659 5659 5659
5654 5651 5645 5648 5650 5649 5654 5657 5658 5660 5659 5660 5663 5661 5657 5656 5657 5660 5661 5662 5662 5662 5662 5662 5662 5662 5662 5662 5661 5661 5661 5661 5661 5660 5660 5660 5659 5658 5658 5658 5658 5658 5657 5657 5657 5656 5655 5655 5655
5644 5640 5638 5640 5642 5642 5647 5649 5649 5651 5651 5649 5649 5650 5650 5651 5651 5654 5654 5654 5654 5655 5656 5656 5656 5657 5657 5657 5656 5656 5656 5656 5656 5655 5655 5655 5656 5655 5655 5654 5653 5653 5653 5653 5653 5652 5652 5652 5652
5631 5629 5630 5632 5636 5635 5636 5639 5641 5642 5642 5640 5641 5640 5642 5643 5645 5647 5646 5647 5647 5648 5649 5650 5651 5651 5652 5652 5652 5652 5651 5651 5651 5651 5651 5651 5651 5651 5650 5649 5649 5649 5648 5648 5648 5648 5648 5648 5649
5617 5617 5618 5619 5623 5625 5627 5627 5631 5634 5630 5631 5632 5632 5632 5634 5637 5638 5638 5639 5640 5641 5642 5644 5645 5645 5646 5646 5646 5646 5646 5646 5646 5646 5646 5646 5645 5645 5645 5645 5644 5644 5644 5644 5644 5644 5644 5644 5645
5602 5603 5606 5608 5609 5614 5617 5618 5618 5618 5618 5621 5625 5625 5626 5627 5629 5629 5630 5631 5633 5634 5635 5637 5638 5639 5639 5640 5640 5640 5640 5640 5640 5639 5640 5640 5640 5640 5640 5639 5639 5639 5639 5639 5639 5639 5639 5639 5639
5591 5589 5592 5594 5597 5601 5605 5607 5607 5605 5608 5612 5614 5616 5617 5618 5620 5621 5622 5623 5625 5626 5628 5629 5630 5632 5632 5633 5633 5634 5634 5634 5633 5633 5634 5634 5634 5634 5634 5634 5633 5633 5633 5634 5634 5634 5634 5634 5634
5578 5580 5582 5585 5587 5590 5592 5593 5595 5594 5598 5601 5604 5605 5607 5609 5610 5612 5613 5614 5616 5618 5619 5621 5623 5624 5624 5625 5626 5627 5627 5626 5627 5627 5627 5627 5627 5627 5627 5628 5627 5627 5627 5627 5628 5628 5628 5629 5629
5569 5571 5572 5573 5577 5580 5586 5582 5582 5585 5588 5591 5593 5595 5597 5599 5601 5603 5604 5605 5607 5609 5611 5612 5614 5615 5617 5617 5618 5618 5619 5619 5619 5619 5619 5619 5619 5620 5620 5621 5620 5620 5620 5621 5621 5621 5622 5622 5623
5560 5564 5564 5562 5566 5571 5576 5572 5573 5576 5579 5582 5584 5586 5588 5590 5592 5593 5595 5596 5598 5600 5601 5603 5605 5607 5608 5609 5609 5610 5610 5610 5610 5610 5610 5610 5611 5611 5612 5612 5612 5612 5612 5613 5613 5613 5614 5615 5615
5551 5554 5554 5553 5555 5561 5565 5563 5563 5566 5569 5572 5575 5577 5578 5580 5583 5584 5586 5587 5589 5590 5592 5594 5596 5597 5599 5599 5600 5600 5600 5600 5600 5600 5601 5601 5602 5602 5602 5602 5603 5603 5604 5604 5604 5604 5603 5605 5606
5541 5543 5542 5544 5545 5549 5551 5551 5554 5556 5559 5563 5566 5568 5569 5570 5571 5573 5575 5577 5579 5580 5583 5585 5586 5587 5589 5589 5590 5590 5591 5590 5590 5590 5590 5591 5592 5592 5592 5593 5593 5593 5594 5594 5594 5594 5594 5594 5595
5530 5532 5532 5532 5533 5537 5541 5542 5545 5548 5550 5553 5556 5558 5560 5560 5562 5563 5565 5567 5569 5571 5574 5575 5576 5577 5578 5579 5579 5580 5580 5580 5579 5579 5579 5580 5580 5581 5581 5581 5581 5581 5581 5582 5583 5583 5584 5584 5583
5518 5520 5521 5521 5523 5527 5531 5533 5537 5539 5541 5544 5546 5548 5550 5551 5552 5553 5555 5557 5559 5561 5563 5565 5566 5566 5567 5568 5568 5568 5568 5568 5568 5567 5567 5568 5568 5568 5569 5569 5569 5568 5569 5569 5569 5570 5571 5571 5570
5508 5510 5512 5513 5515 5519 5524 5532 5532 5532 5532 5533 5535 5537 5539 5541 5542 5543 5544 5547 5550 5551 5552 5554 5555 5556 5557 5557 5558 5558 5558 5558 5558 5557 5556 5556 5556 5556 5556 5556 5556 5556 5556 5556 5555 5556 5556 5557 5557
5500 5499 5501 5504 5514 5518 5518 5529 5531 5528 5527 5527 5527 5529 5530 5531 5532 5534 5535 5537 5539 5540 5541 5543 5544 5546 5547 5547 5548 5547 5547 5546 5546 5544 5543 5543 5542 5543 5543 5543 5543 5543 5543 5542 5542 5541 5541 5542 5544
5490 5491 5494 5499 5503 5507 5510 5515 5530 5522 5525 5526 5524 5522 5522 5522 5524 5525 5525 5526 5527 5529 5530 5532 5533 5534 5536 5537 5537 5536 5535 5534 5533 5532 5532 5530 5529 5529 5529 5529 5529 5529 5529 5529 5528 5527 5527 5526 5527
5484 5487 5490 5493 5499 5502 5503 5508 5525 5524 5525 5525 5521 5516 5515 5515 5515 5515 5516 5516 5517 5518 5520 5521 5522 5522 5523 5524 5525 5524 5524 5522 5521 5521 5520 5519 5518 5517 5516 5515 5514 5514 5514 5513 5513 5512 5511 5510 5509
5483 5489 5495 5498 5500 5507 5496 5501 5518 5518 5516 5515 5512 5509 5507 5506 5507 5507 5507 5508 5508 5508 5509 5510 5511 5510 5510 5511 5511 5511 5511 5510 5509 5508 5507 5505 5505 5504 5502 5501 5499 5498 5497 5497 5496 5496 5494 5493 5491
5476 5482 5490 5497 5503 5507 5491 5503 5517 5506 5502 5502 5501 5498 5496 5496 5496 5496 5497 5497 5497 5498 5498 5500 5499 5499 5498 5498 5498 5498 5498 5497 5496 5494 5493 5491 5490 5489 5487 5486 5484 5483 5481 5480 5480 5478 5477 5475 5473
5474 5473 5470 5476 5464 5480 5502 5503 5504 5498 5497 5494 5493 5492 5490 5489 5487 5487 5487 5487 5487 5487 5487 5488 5488 5488 5487 5486 5486 5486 5486 5484 5483 5481 5479 5477 5476 5474 5473 5471 5470 5468 5466 5465 5463 5462 5459 5457 5456
5466 5467 5468 5474 5485 5497 5501 5503 5513 5502 5499 5494 5490 5488 5485 5482 5480 5479 5478 5477 5476 5476 5476 5476 5476 5476 5475 5475 5474 5473 5472 5471 5469 5467 5466 5464 5461 5459 5459 5457 5455 5453 5451 5449 5447 5445 5442 5440 5439
5463 5462 5465 5467 5467 5487 5497 5511 5505 5500 5496 5493 5489 5484 5480 5477 5474 5472 5469 5468 5467 5467 5466 5465 5465 5464 5463 5462 5461 5461 5460 5458 5456 5454 5452 5450 5447 5445 5444 5443 5441 5438 5436 5434 5431 5429 5426 5424 5422
5457 5462 5464 5473 5464 5463 5480 5501 5494 5490 5488 5486 5483 5478 5474 5470 5468 5465 5462 5461 5459 5458 5457 5456 5454 5452 5451 5450 5449 5449 5447 5445 5443 5441 5438 5436 5434 5432 5430 5428 5426 5424 5421 5419 5416 5413 5410 5407 5404